Tracking 28799 objects as of 18-Apr-2024
HD Live streaming from Space Station
objects crossing your sky now

TITAN 3D DEB

Track TITAN 3D DEB now!
10-day predictions


NORAD ID: 6823
Int'l Code: 1972-079D
Perigee: 1,411.9 km
Apogee: 1,491.2 km
Inclination: 95.8 °
Period: 114.8 minutes
Semi major axis: 7822 km
RCS: 0.071 m2 (small)
Launch date: October 10, 1972
Source: United States (US)
Launch site: AIR FORCE WESTERN TEST RANGE (AFWTR)

Note: This is SATELLITE DEBRIS
Your satellite tracking list
Your tracking list is empty




NASA's NSSDC Master Catalog

Two Line Element Set (TLE):
1 06823U 72079D   24108.09570295  .00000012  00000-0  15336-3 0  9990
2 06823  95.8045 240.6252 0050711 325.0125  87.9189 12.54823780358519
Source of the keplerian elements: AFSPC